Time,TemperatureF,DewpointF,PressureIn,WindDirection,WindDirectionDegrees,WindSpeedMPH,WindSpeedGustMPH,Humidity,HourlyPrecipIn,Conditions,Clouds,dailyrainin,SoftwareType,DateUTC
2013-04-24 00:01:00,41.1,40.0,29.75,NW,316,1.0,2.0,96,0.03,,---,0.52,VWS V14.01,2013-04-24 04:01:00,
2013-04-24 00:06:00,41.0,40.0,29.75,NW,316,0.0,2.0,96,0.02,,---,0.00,VWS V14.01,2013-04-24 04:06:00,
2013-04-24 00:11:00,41.0,40.0,29.75,NW,314,0.0,2.0,96,0.03,,---,0.01,VWS V14.01,2013-04-24 04:11:00,
2013-04-24 00:16:00,41.0,40.0,29.75,NW,314,0.0,0.0,96,0.04,,---,0.02,VWS V14.01,2013-04-24 04:16:00,
2013-04-24 00:21:00,40.9,39.8,29.74,NW,314,0.0,1.0,96,0.05,,---,0.03,VWS V14.01,2013-04-24 04:21:00,
2013-04-24 00:26:00,40.9,39.8,29.74,NW,314,0.0,1.0,96,0.06,,---,0.04,VWS V14.01,2013-04-24 04:26:00,
2013-04-24 00:31:00,40.9,40.1,29.74,NW,316,0.0,1.0,97,0.06,,---,0.04,VWS V14.01,2013-04-24 04:31:00,
2013-04-24 00:36:00,40.9,39.8,29.74,NW,316,1.0,2.0,96,0.06,,---,0.04,VWS V14.01,2013-04-24 04:36:00,
2013-04-24 00:41:00,40.8,39.8,29.74,NW,311,0.0,3.0,96,0.06,,---,0.04,VWS V14.01,2013-04-24 04:41:00,
2013-04-24 00:46:00,40.9,40.1,29.74,WNW,295,0.0,4.0,97,0.05,,---,0.04,VWS V14.01,2013-04-24 04:46:00,
2013-04-24 00:51:00,40.9,39.8,29.75,WSW,255,3.0,3.0,96,0.05,,---,0.04,VWS V14.01,2013-04-24 04:51:00,
2013-04-24 00:56:00,40.8,39.8,29.75,WNW,283,0.0,2.0,96,0.06,,---,0.05,VWS V14.01,2013-04-24 04:56:00,
2013-04-24 01:01:00,40.7,39.7,29.75,NW,324,1.0,3.0,96,0.06,,---,0.05,VWS V14.01,2013-04-24 05:01:00,
2013-04-24 01:06:00,40.5,39.7,29.75,NW,321,1.0,1.0,97,0.06,,---,0.06,VWS V14.01,2013-04-24 05:06:00,
2013-04-24 01:11:00,40.3,39.2,29.75,West,259,0.0,4.0,96,0.05,,---,0.06,VWS V14.01,2013-04-24 05:11:00,
2013-04-24 01:16:00,40.2,39.4,29.75,West,269,0.0,3.0,97,0.04,,---,0.06,VWS V14.01,2013-04-24 05:16:00,
2013-04-24 01:21:00,40.0,39.2,29.75,West,269,0.0,0.0,97,0.04,,---,0.07,VWS V14.01,2013-04-24 05:21:00,
2013-04-24 01:26:00,40.0,39.2,29.75,West,269,0.0,0.0,97,0.03,,---,0.07,VWS V14.01,2013-04-24 05:26:00,
2013-04-24 01:31:00,39.8,39.0,29.75,West,276,1.0,2.0,97,0.03,,---,0.07,VWS V14.01,2013-04-24 05:31:00,
2013-04-24 01:36:00,39.6,38.8,29.75,West,270,0.0,3.0,97,0.03,,---,0.07,VWS V14.01,2013-04-24 05:36:00,
2013-04-24 01:41:00,39.6,38.8,29.75,West,271,0.0,2.0,97,0.03,,---,0.07,VWS V14.01,2013-04-24 05:41:00,
2013-04-24 01:46:00,39.4,38.6,29.75,West,262,0.0,2.0,97,0.03,,---,0.07,VWS V14.01,2013-04-24 05:46:00,
2013-04-24 01:51:00,39.4,38.6,29.75,West,262,0.0,2.0,97,0.04,,---,0.08,VWS V14.01,2013-04-24 05:51:00,
2013-04-24 01:56:00,39.4,38.6,29.75,West,262,0.0,1.0,97,0.03,,---,0.08,VWS V14.01,2013-04-24 05:56:00,
2013-04-24 02:01:00,39.3,38.5,29.75,West,262,0.0,2.0,97,0.03,,---,0.08,VWS V14.01,2013-04-24 06:01:00,
2013-04-24 02:06:00,39.4,38.6,29.74,West,262,1.0,2.0,97,0.03,,---,0.09,VWS V14.01,2013-04-24 06:06:00,
2013-04-24 02:11:00,39.4,38.6,29.74,SW,231,1.0,2.0,97,0.03,,---,0.09,VWS V14.01,2013-04-24 06:11:00,
2013-04-24 02:16:00,39.5,38.7,29.74,SW,233,1.0,1.0,97,0.03,,---,0.09,VWS V14.01,2013-04-24 06:16:00,
2013-04-24 02:21:00,39.5,38.7,29.74,NW,309,1.0,2.0,97,0.03,,---,0.10,VWS V14.01,2013-04-24 06:21:00,
2013-04-24 02:26:00,39.5,38.7,29.74,NW,321,1.0,2.0,97,0.03,,---,0.10,VWS V14.01,2013-04-24 06:26:00,
2013-04-24 02:31:00,39.6,38.8,29.74,WNW,291,0.0,2.0,97,0.03,,---,0.10,VWS V14.01,2013-04-24 06:31:00,
2013-04-24 02:36:00,39.5,38.7,29.74,WNW,291,0.0,1.0,97,0.03,,---,0.10,VWS V14.01,2013-04-24 06:36:00,
2013-04-24 02:41:00,39.5,38.7,29.74,WNW,301,0.0,1.0,97,0.03,,---,0.10,VWS V14.01,2013-04-24 06:41:00,
2013-04-24 02:46:00,39.4,38.6,29.74,West,269,0.0,5.0,97,0.03,,---,0.10,VWS V14.01,2013-04-24 06:46:00,
2013-04-24 02:51:00,39.4,38.6,29.75,NNW,328,0.0,2.0,97,0.02,,---,0.10,VWS V14.01,2013-04-24 06:51:00,
2013-04-24 02:56:00,39.4,38.6,29.75,WSW,246,3.0,9.0,97,0.02,,---,0.10,VWS V14.01,2013-04-24 06:56:00,
2013-04-24 03:01:00,39.4,38.6,29.75,NW,317,3.0,3.0,97,0.02,,---,0.10,VWS V14.01,2013-04-24 07:01:00,
2013-04-24 03:06:00,39.4,38.6,29.75,NW,304,2.0,4.0,97,0.01,,---,0.10,VWS V14.01,2013-04-24 07:06:00,
2013-04-24 03:11:00,39.3,38.5,29.75,NNW,333,0.0,5.0,97,0.01,,---,0.10,VWS V14.01,2013-04-24 07:11:00,
2013-04-24 03:16:00,39.3,38.5,29.75,North,359,2.0,2.0,97,0.01,,---,0.10,VWS V14.01,2013-04-24 07:16:00,
2013-04-24 03:21:00,39.4,38.6,29.74,West,265,1.0,6.0,97,0.00,,---,0.10,VWS V14.01,2013-04-24 07:21:00,
2013-04-24 03:26:00,39.4,38.6,29.74,West,281,0.0,2.0,97,0.00,,---,0.10,VWS V14.01,2013-04-24 07:26:00,
2013-04-24 03:31:00,39.5,38.7,29.74,NW,316,4.0,4.0,97,0.00,,---,0.10,VWS V14.01,2013-04-24 07:31:00,
2013-04-24 03:36:00,39.5,38.7,29.74,NW,307,3.0,3.0,97,0.00,,---,0.10,VWS V14.01,2013-04-24 07:36:00,
2013-04-24 03:41:00,39.6,38.8,29.74,NNW,328,1.0,5.0,97,0.00,,---,0.10,VWS V14.01,2013-04-24 07:41:00,
2013-04-24 03:46:00,39.5,38.7,29.74,NW,316,0.0,7.0,97,0.00,,---,0.10,VWS V14.01,2013-04-24 07:46:00,
2013-04-24 03:51:00,39.4,38.6,29.77,NW,321,3.0,6.0,97,0.00,,---,0.10,VWS V14.01,2013-04-24 07:51:00,
2013-04-24 03:56:00,39.4,38.6,29.77,NW,313,1.0,6.0,97,0.00,,---,0.10,VWS V14.01,2013-04-24 07:56:00,
2013-04-24 04:01:00,39.3,38.5,29.77,NNW,344,3.0,5.0,97,0.00,,---,0.10,VWS V14.01,2013-04-24 08:01:00,
2013-04-24 04:06:00,38.9,37.9,29.76,WSW,255,2.0,5.0,96,0.00,,---,0.10,VWS V14.01,2013-04-24 08:06:00,
2013-04-24 04:11:00,38.6,37.6,29.76,West,280,4.0,5.0,96,0.00,,---,0.10,VWS V14.01,2013-04-24 08:11:00,
2013-04-24 04:16:00,38.4,37.4,29.76,NW,321,2.0,6.0,96,0.00,,---,0.10,VWS V14.01,2013-04-24 08:16:00,
2013-04-24 04:21:00,38.2,37.2,29.76,NW,320,3.0,5.0,96,0.00,,---,0.10,VWS V14.01,2013-04-24 08:21:00,
2013-04-24 04:26:00,38.0,36.7,29.76,NNW,348,3.0,3.0,95,0.00,,---,0.10,VWS V14.01,2013-04-24 08:26:00,
2013-04-24 04:31:00,37.8,36.5,29.76,NW,313,0.0,2.0,95,0.00,,---,0.10,VWS V14.01,2013-04-24 08:31:00,
2013-04-24 04:36:00,37.6,36.3,29.77,WSW,258,2.0,3.0,95,0.00,,---,0.10,VWS V14.01,2013-04-24 08:36:00,
2013-04-24 04:41:00,37.4,36.1,29.77,NW,316,1.0,4.0,95,0.00,,---,0.10,VWS V14.01,2013-04-24 08:41:00,
2013-04-24 04:46:00,37.2,35.9,29.77,WNW,282,2.0,4.0,95,0.00,,---,0.10,VWS V14.01,2013-04-24 08:46:00,
2013-04-24 04:51:00,37.0,35.7,29.78,NW,312,2.0,2.0,95,0.00,,---,0.10,VWS V14.01,2013-04-24 08:51:00,
2013-04-24 04:56:00,36.8,35.5,29.78,North,359,0.0,4.0,95,0.00,,---,0.10,VWS V14.01,2013-04-24 08:56:00,
2013-04-24 05:01:00,36.6,35.3,29.78,North,357,0.0,4.0,95,0.00,,---,0.10,VWS V14.01,2013-04-24 09:01:00,
2013-04-24 05:06:00,36.5,35.2,29.78,NW,308,6.0,6.0,95,0.00,,---,0.10,VWS V14.01,2013-04-24 09:06:00,
2013-04-24 05:11:00,36.4,35.1,29.78,NW,305,0.0,3.0,95,0.00,,---,0.10,VWS V14.01,2013-04-24 09:11:00,
2013-04-24 05:16:00,36.2,34.9,29.78,NNW,337,3.0,5.0,95,0.00,,---,0.10,VWS V14.01,2013-04-24 09:16:00,
2013-04-24 05:21:00,36.0,34.7,29.78,NW,309,6.0,6.0,95,0.00,,---,0.10,VWS V14.01,2013-04-24 09:21:00,
2013-04-24 05:26:00,35.9,34.3,29.78,NW,307,1.0,5.0,94,0.00,,---,0.10,VWS V14.01,2013-04-24 09:26:00,
2013-04-24 05:31:00,35.9,34.3,29.78,NW,319,5.0,5.0,94,0.00,,---,0.10,VWS V14.01,2013-04-24 09:31:00,
2013-04-24 05:36:00,35.9,34.3,29.79,North,353,0.0,2.0,94,0.00,,---,0.10,VWS V14.01,2013-04-24 09:36:00,
2013-04-24 05:41:00,36.0,34.4,29.79,NNW,340,4.0,4.0,94,0.00,,---,0.10,VWS V14.01,2013-04-24 09:41:00,
2013-04-24 05:46:00,36.0,34.2,29.79,WNW,288,3.0,3.0,93,0.00,,---,0.10,VWS V14.01,2013-04-24 09:46:00,
2013-04-24 05:51:00,36.0,34.2,29.79,NNW,339,1.0,3.0,93,0.00,,---,0.10,VWS V14.01,2013-04-24 09:51:00,
2013-04-24 05:56:00,36.0,34.2,29.79,NW,316,0.0,4.0,93,0.00,,---,0.10,VWS V14.01,2013-04-24 09:56:00,
2013-04-24 06:01:00,36.0,34.2,29.79,NW,320,0.0,4.0,93,0.00,,---,0.10,VWS V14.01,2013-04-24 10:01:00,
2013-04-24 06:06:00,36.0,34.2,29.80,WNW,297,3.0,3.0,93,0.00,,---,0.10,VWS V14.01,2013-04-24 10:06:00,
2013-04-24 06:11:00,36.0,33.9,29.80,North,7,0.0,5.0,92,0.00,,---,0.10,VWS V14.01,2013-04-24 10:11:00,
2013-04-24 06:16:00,36.0,33.9,29.80,North,357,0.0,1.0,92,0.00,,---,0.10,VWS V14.01,2013-04-24 10:16:00,
2013-04-24 06:21:00,36.0,33.9,29.80,NNW,335,2.0,3.0,92,0.00,,---,0.10,VWS V14.01,2013-04-24 10:21:00,
2013-04-24 06:26:00,36.0,33.9,29.80,NNW,342,2.0,2.0,92,0.00,,---,0.10,VWS V14.01,2013-04-24 10:26:00,
2013-04-24 06:31:00,35.9,33.8,29.80,NW,321,1.0,4.0,92,0.00,,---,0.10,VWS V14.01,2013-04-24 10:31:00,
2013-04-24 06:36:00,35.9,33.8,29.81,NNW,338,4.0,4.0,92,0.00,,---,0.10,VWS V14.01,2013-04-24 10:36:00,
2013-04-24 06:41:00,35.9,33.8,29.81,North,359,0.0,4.0,92,0.00,,---,0.10,VWS V14.01,2013-04-24 10:41:00,
2013-04-24 06:46:00,35.8,33.7,29.81,NW,322,0.0,2.0,92,0.00,,---,0.10,VWS V14.01,2013-04-24 10:46:00,
2013-04-24 06:51:00,35.9,33.8,29.81,NW,314,1.0,4.0,92,0.00,,---,0.10,VWS V14.01,2013-04-24 10:51:00,
2013-04-24 06:55:00,35.9,33.8,29.81,NW,322,1.0,1.0,92,0.00,,---,0.10,VWS V14.01,2013-04-24 10:55:00,
2013-04-24 07:00:00,35.9,33.8,29.81,NW,313,0.0,4.0,92,0.00,,---,0.10,VWS V14.01,2013-04-24 11:00:00,
2013-04-24 07:05:00,35.9,33.8,29.81,NW,310,2.0,2.0,92,0.00,,---,0.10,VWS V14.01,2013-04-24 11:05:00,
2013-04-24 07:10:00,35.9,33.8,29.81,NW,324,0.0,5.0,92,0.00,,---,0.10,VWS V14.01,2013-04-24 11:10:00,
2013-04-24 07:15:00,35.9,33.8,29.81,North,358,0.0,4.0,92,0.00,,---,0.10,VWS V14.01,2013-04-24 11:15:00,
2013-04-24 07:20:00,35.9,33.8,29.81,NNW,330,1.0,4.0,92,0.00,,---,0.10,VWS V14.01,2013-04-24 11:20:00,
2013-04-24 07:25:00,35.9,33.8,29.81,West,274,2.0,2.0,92,0.00,,---,0.10,VWS V14.01,2013-04-24 11:25:00,
2013-04-24 07:30:00,35.9,33.8,29.81,WNW,295,0.0,5.0,92,0.00,,---,0.10,VWS V14.01,2013-04-24 11:30:00,
2013-04-24 07:35:00,36.0,33.9,29.82,NW,321,2.0,4.0,92,0.00,,---,0.10,VWS V14.01,2013-04-24 11:35:00,
2013-04-24 07:40:00,36.0,33.9,29.82,NW,314,3.0,7.0,92,0.00,,---,0.10,VWS V14.01,2013-04-24 11:40:00,
2013-04-24 07:45:00,36.0,33.9,29.82,North,0,2.0,4.0,92,0.00,,---,0.10,VWS V14.01,2013-04-24 11:45:00,
2013-04-24 07:50:00,36.0,33.9,29.83,NW,321,0.0,3.0,92,0.00,,---,0.10,VWS V14.01,2013-04-24 11:50:00,
2013-04-24 07:55:00,36.0,33.9,29.83,NW,315,0.0,1.0,92,0.00,,---,0.10,VWS V14.01,2013-04-24 11:55:00,
2013-04-24 08:00:00,36.0,33.9,29.83,NW,319,0.0,3.0,92,0.00,,---,0.10,VWS V14.01,2013-04-24 12:00:00,
2013-04-24 08:05:00,36.0,33.9,29.84,NW,305,1.0,3.0,92,0.00,,---,0.10,VWS V14.01,2013-04-24 12:05:00,
2013-04-24 08:10:00,36.0,33.9,29.84,NW,313,0.0,3.0,92,0.00,,---,0.10,VWS V14.01,2013-04-24 12:10:00,
2013-04-24 08:15:00,35.9,33.5,29.84,NW,320,1.0,3.0,91,0.00,,---,0.10,VWS V14.01,2013-04-24 12:15:00,
2013-04-24 08:20:00,36.0,33.6,29.84,NW,319,0.0,3.0,91,0.00,,---,0.10,VWS V14.01,2013-04-24 12:20:00,
2013-04-24 08:25:00,35.9,33.5,29.84,WNW,297,0.0,3.0,91,0.00,,---,0.10,VWS V14.01,2013-04-24 12:25:00,
2013-04-24 08:30:00,35.9,33.5,29.84,NW,321,2.0,3.0,91,0.00,,---,0.10,VWS V14.01,2013-04-24 12:30:00,
2013-04-24 08:35:00,35.9,33.5,29.83,North,1,2.0,3.0,91,0.00,,---,0.10,VWS V14.01,2013-04-24 12:35:00,
2013-04-24 08:40:00,35.9,33.5,29.83,NW,318,0.0,3.0,91,0.00,,---,0.10,VWS V14.01,2013-04-24 12:40:00,
2013-04-24 08:45:00,36.0,33.6,29.83,WNW,286,2.0,4.0,91,0.00,,---,0.10,VWS V14.01,2013-04-24 12:45:00,
2013-04-24 08:50:00,36.0,33.6,29.84,WNW,290,1.0,9.0,91,0.00,,---,0.10,VWS V14.01,2013-04-24 12:50:00,
2013-04-24 08:55:00,35.9,33.5,29.84,NNW,342,2.0,3.0,91,0.00,,---,0.10,VWS V14.01,2013-04-24 12:55:00,
2013-04-24 09:00:00,35.8,33.4,29.84,NNW,338,1.0,5.0,91,0.00,,---,0.10,VWS V14.01,2013-04-24 13:00:00,
2013-04-24 09:05:00,35.9,33.5,29.84,NW,304,2.0,2.0,91,0.00,,---,0.10,VWS V14.01,2013-04-24 13:05:00,
2013-04-24 09:10:00,35.9,33.5,29.84,WNW,303,0.0,3.0,91,0.00,,---,0.10,VWS V14.01,2013-04-24 13:10:00,
2013-04-24 09:15:00,35.8,33.4,29.84,NW,309,0.0,3.0,91,0.00,,---,0.10,VWS V14.01,2013-04-24 13:15:00,
2013-04-24 09:20:00,35.8,33.4,29.84,NW,307,3.0,3.0,91,0.00,,---,0.10,VWS V14.01,2013-04-24 13:20:00,
2013-04-24 09:25:00,35.8,33.2,29.84,NNW,338,2.0,2.0,90,0.00,,---,0.10,VWS V14.01,2013-04-24 13:25:00,
2013-04-24 09:30:00,35.9,33.5,29.84,NNW,330,0.0,3.0,91,0.00,,---,0.10,VWS V14.01,2013-04-24 13:30:00,
2013-04-24 09:35:00,35.8,33.2,29.84,North,356,0.0,0.0,90,0.00,,---,0.10,VWS V14.01,2013-04-24 13:35:00,
2013-04-24 09:40:00,35.8,33.4,29.84,WNW,293,0.0,1.0,91,0.00,,---,0.10,VWS V14.01,2013-04-24 13:40:00,
2013-04-24 09:45:00,35.9,33.5,29.84,North,1,1.0,4.0,91,0.00,,---,0.10,VWS V14.01,2013-04-24 13:45:00,
2013-04-24 09:50:00,36.0,33.6,29.83,NW,310,0.0,1.0,91,0.00,,---,0.10,VWS V14.01,2013-04-24 13:50:00,
2013-04-24 09:55:00,36.0,33.6,29.83,NW,307,0.0,2.0,91,0.00,,---,0.10,VWS V14.01,2013-04-24 13:55:00,
2013-04-24 10:00:00,36.0,33.6,29.83,NW,306,0.0,2.0,91,0.00,,---,0.10,VWS V14.01,2013-04-24 14:00:00,
2013-04-24 10:05:00,36.1,33.7,29.83,WNW,290,1.0,2.0,91,0.00,,---,0.10,VWS V14.01,2013-04-24 14:05:00,
2013-04-24 10:10:00,36.1,33.7,29.83,NW,312,1.0,2.0,91,0.00,,---,0.10,VWS V14.01,2013-04-24 14:10:00,
2013-04-24 10:15:00,36.1,33.5,29.83,NW,324,3.0,5.0,90,0.00,,---,0.10,VWS V14.01,2013-04-24 14:15:00,
2013-04-24 10:20:00,36.1,33.5,29.84,WNW,297,1.0,5.0,90,0.00,,---,0.10,VWS V14.01,2013-04-24 14:20:00,
2013-04-24 10:25:00,36.2,33.6,29.84,WNW,293,1.0,3.0,90,0.00,,---,0.10,VWS V14.01,2013-04-24 14:25:00,
2013-04-24 10:30:00,36.2,33.6,29.84,WNW,299,3.0,4.0,90,0.00,,---,0.10,VWS V14.01,2013-04-24 14:30:00,
2013-04-24 10:35:00,36.3,33.4,29.84,WNW,303,2.0,3.0,89,0.00,,---,0.10,VWS V14.01,2013-04-24 14:35:00,
2013-04-24 10:40:00,36.2,33.3,29.84,WNW,299,0.0,4.0,89,0.00,,---,0.10,VWS V14.01,2013-04-24 14:40:00,
2013-04-24 10:45:00,36.2,33.3,29.84,NW,304,4.0,5.0,89,0.00,,---,0.10,VWS V14.01,2013-04-24 14:45:00,
2013-04-24 10:50:00,36.2,33.6,29.87,NW,314,3.0,3.0,90,0.00,,---,0.10,VWS V14.01,2013-04-24 14:50:00,
2013-04-24 10:55:00,36.1,33.2,29.87,NW,323,0.0,3.0,89,0.00,,---,0.10,VWS V14.01,2013-04-24 14:55:00,
2013-04-24 11:00:00,36.2,33.6,29.87,NW,316,0.0,2.0,90,0.00,,---,0.10,VWS V14.01,2013-04-24 15:00:00,
2013-04-24 11:05:00,36.3,33.7,29.88,WNW,300,0.0,3.0,90,0.00,,---,0.10,VWS V14.01,2013-04-24 15:05:00,
2013-04-24 11:10:00,36.4,33.8,29.88,WNW,288,0.0,7.0,90,0.00,,---,0.10,VWS V14.01,2013-04-24 15:10:00,
2013-04-24 11:15:00,36.3,33.7,29.88,NW,321,0.0,1.0,90,0.00,,---,0.10,VWS V14.01,2013-04-24 15:15:00,
2013-04-24 11:20:00,36.2,33.6,29.90,WSW,257,0.0,1.0,90,0.00,,---,0.10,VWS V14.01,2013-04-24 15:20:00,
2013-04-24 11:25:00,35.9,33.5,29.90,WNW,298,0.0,4.0,91,0.00,,---,0.10,VWS V14.01,2013-04-24 15:25:00,
2013-04-24 11:30:00,35.9,33.5,29.90,WNW,286,0.0,1.0,91,0.01,,---,0.11,VWS V14.01,2013-04-24 15:30:00,
2013-04-24 11:35:00,36.1,34.0,29.89,West,275,2.0,2.0,92,0.01,,---,0.11,VWS V14.01,2013-04-24 15:35:00,
2013-04-24 11:40:00,36.2,34.4,29.89,West,280,0.0,3.0,93,0.01,,---,0.11,VWS V14.01,2013-04-24 15:40:00,
2013-04-24 11:45:00,36.2,34.4,29.89,West,277,0.0,4.0,93,0.01,,---,0.11,VWS V14.01,2013-04-24 15:45:00,
2013-04-24 11:50:00,36.4,34.8,29.90,West,265,1.0,3.0,94,0.02,,---,0.12,VWS V14.01,2013-04-24 15:50:00,
2013-04-24 11:55:00,36.4,34.8,29.90,West,263,2.0,2.0,94,0.02,,---,0.12,VWS V14.01,2013-04-24 15:55:00,
2013-04-24 12:00:00,36.6,35.0,29.90,West,263,2.0,2.0,94,0.02,,---,0.12,VWS V14.01,2013-04-24 16:00:00,
2013-04-24 12:05:00,36.9,35.3,29.90,West,261,1.0,1.0,94,0.02,,---,0.12,VWS V14.01,2013-04-24 16:05:00,
2013-04-24 12:10:00,37.5,35.9,29.90,WSW,254,1.0,3.0,94,0.02,,---,0.12,VWS V14.01,2013-04-24 16:10:00,
2013-04-24 12:15:00,37.7,35.6,29.90,NNW,331,0.0,4.0,92,0.02,,---,0.12,VWS V14.01,2013-04-24 16:15:00,
2013-04-24 12:20:00,38.0,35.3,29.89,West,280,1.0,2.0,90,0.02,,---,0.12,VWS V14.01,2013-04-24 16:20:00,
2013-04-24 12:25:00,38.2,35.0,29.89,WSW,247,1.0,2.0,88,0.02,,---,0.12,VWS V14.01,2013-04-24 16:25:00,
2013-04-24 12:30:00,38.3,34.5,29.89,West,269,3.0,5.0,86,0.02,,---,0.12,VWS V14.01,2013-04-24 16:30:00,
2013-04-24 12:35:00,38.4,34.0,29.89,West,280,3.0,4.0,84,0.01,,---,0.12,VWS V14.01,2013-04-24 16:35:00,
2013-04-24 12:40:00,38.8,34.7,29.89,WNW,288,1.0,3.0,85,0.01,,---,0.12,VWS V14.01,2013-04-24 16:40:00,
2013-04-24 12:45:00,39.3,34.6,29.89,West,275,2.0,4.0,83,0.01,,---,0.12,VWS V14.01,2013-04-24 16:45:00,
2013-04-24 12:50:00,40.0,35.3,29.88,WNW,301,7.0,7.0,83,0.00,,---,0.12,VWS V14.01,2013-04-24 16:50:00,
2013-04-24 12:55:00,40.3,34.6,29.88,WNW,283,0.0,4.0,80,0.00,,---,0.12,VWS V14.01,2013-04-24 16:55:00,
2013-04-24 13:00:00,40.5,34.5,29.88,WNW,296,4.0,4.0,79,0.00,,---,0.12,VWS V14.01,2013-04-24 17:00:00,
2013-04-24 13:05:00,40.8,35.1,29.88,WNW,303,4.0,4.0,80,0.00,,---,0.12,VWS V14.01,2013-04-24 17:05:00,
2013-04-24 13:10:00,40.5,34.5,29.88,NW,316,2.0,4.0,79,0.00,,---,0.12,VWS V14.01,2013-04-24 17:10:00,
2013-04-24 13:15:00,40.2,33.6,29.88,WNW,287,1.0,3.0,77,0.00,,---,0.12,VWS V14.01,2013-04-24 17:15:00,
2013-04-24 13:20:00,40.4,33.8,29.89,WSW,245,1.0,1.0,77,0.00,,---,0.12,VWS V14.01,2013-04-24 17:20:00,
2013-04-24 13:25:00,40.5,33.9,29.89,WSW,253,5.0,8.0,77,0.00,,---,0.12,VWS V14.01,2013-04-24 17:25:00,
2013-04-24 13:30:00,40.2,34.2,29.89,WSW,244,1.0,6.0,79,0.00,,---,0.12,VWS V14.01,2013-04-24 17:30:00,
2013-04-24 13:35:00,40.0,33.7,29.90,West,266,5.0,7.0,78,0.00,,---,0.12,VWS V14.01,2013-04-24 17:35:00,
2013-04-24 13:40:00,39.9,33.9,29.90,SW,236,2.0,6.0,79,0.00,,---,0.12,VWS V14.01,2013-04-24 17:40:00,
2013-04-24 13:45:00,39.6,34.0,29.90,WNW,301,3.0,4.0,80,0.00,,---,0.12,VWS V14.01,2013-04-24 17:45:00,
2013-04-24 13:50:00,39.5,33.5,29.91,WSW,252,5.0,5.0,79,0.00,,---,0.12,VWS V14.01,2013-04-24 17:50:00,
2013-04-24 13:55:00,40.0,34.0,29.91,WSW,243,3.0,3.0,79,0.00,,---,0.12,VWS V14.01,2013-04-24 17:55:00,
2013-04-24 14:00:00,40.2,34.8,29.91,West,269,0.0,2.0,81,0.00,,---,0.12,VWS V14.01,2013-04-24 18:00:00,
2013-04-24 14:05:00,40.2,34.5,29.92,WSW,254,0.0,5.0,80,0.00,,---,0.12,VWS V14.01,2013-04-24 18:05:00,
2013-04-24 14:10:00,40.5,35.1,29.92,West,281,2.0,4.0,81,0.00,,---,0.12,VWS V14.01,2013-04-24 18:10:00,
2013-04-24 14:15:00,40.7,34.7,29.92,WNW,288,1.0,5.0,79,0.00,,---,0.12,VWS V14.01,2013-04-24 18:15:00,
2013-04-24 14:20:00,40.9,34.9,29.92,WNW,290,1.0,10.0,79,0.00,,---,0.12,VWS V14.01,2013-04-24 18:20:00,
2013-04-24 14:25:00,41.0,34.3,29.92,NW,312,2.0,3.0,77,0.00,,---,0.12,VWS V14.01,2013-04-24 18:25:00,
2013-04-24 14:30:00,41.0,34.0,29.92,NW,307,3.0,4.0,76,0.00,,---,0.12,VWS V14.01,2013-04-24 18:30:00,
2013-04-24 14:35:00,41.0,33.7,29.93,WNW,290,5.0,7.0,75,0.00,,---,0.12,VWS V14.01,2013-04-24 18:35:00,
2013-04-24 14:40:00,41.4,34.4,29.93,WNW,287,1.0,3.0,76,0.00,,---,0.12,VWS V14.01,2013-04-24 18:40:00,
2013-04-24 14:45:00,41.7,33.7,29.93,West,271,5.0,5.0,73,0.00,,---,0.12,VWS V14.01,2013-04-24 18:45:00,
2013-04-24 14:50:00,41.6,33.9,29.93,West,261,3.0,3.0,74,0.00,,---,0.12,VWS V14.01,2013-04-24 18:50:00,
2013-04-24 14:55:00,42.0,34.3,29.93,WNW,299,3.0,3.0,74,0.00,,---,0.12,VWS V14.01,2013-04-24 18:55:00,
2013-04-24 15:00:00,42.3,34.3,29.93,WNW,285,0.0,4.0,73,0.00,,---,0.12,VWS V14.01,2013-04-24 19:00:00,
2013-04-24 15:05:00,42.0,32.6,29.94,WSW,245,1.0,6.0,69,0.00,,---,0.12,VWS V14.01,2013-04-24 19:05:00,
2013-04-24 15:10:00,42.1,32.7,29.94,West,277,2.0,6.0,69,0.00,,---,0.12,VWS V14.01,2013-04-24 19:10:00,
2013-04-24 15:15:00,42.3,32.9,29.94,West,281,6.0,6.0,69,0.00,,---,0.12,VWS V14.01,2013-04-24 19:15:00,
2013-04-24 15:20:00,42.1,33.0,29.94,NW,310,4.0,6.0,70,0.00,,---,0.12,VWS V14.01,2013-04-24 19:20:00,
2013-04-24 15:25:00,42.2,33.1,29.94,West,266,11.0,11.0,70,0.00,,---,0.12,VWS V14.01,2013-04-24 19:25:00,
2013-04-24 15:30:00,42.4,34.0,29.94,WNW,283,1.0,4.0,72,0.00,,---,0.12,VWS V14.01,2013-04-24 19:30:00,
2013-04-24 15:35:00,42.4,34.0,29.94,NW,311,3.0,5.0,72,0.00,,---,0.12,VWS V14.01,2013-04-24 19:35:00,
2013-04-24 15:40:00,42.7,34.0,29.94,West,272,0.0,3.0,71,0.00,,---,0.12,VWS V14.01,2013-04-24 19:40:00,
2013-04-24 15:45:00,43.1,34.0,29.94,West,268,5.0,11.0,70,0.00,,---,0.12,VWS V14.01,2013-04-24 19:45:00,
2013-04-24 15:50:00,43.3,33.5,29.94,West,273,1.0,4.0,68,0.00,,---,0.12,VWS V14.01,2013-04-24 19:50:00,
2013-04-24 15:55:00,43.8,33.9,29.94,WNW,297,2.0,5.0,68,0.00,,---,0.12,VWS V14.01,2013-04-24 19:55:00,
2013-04-24 16:00:00,43.5,33.3,29.94,NW,306,2.0,2.0,67,0.00,,---,0.12,VWS V14.01,2013-04-24 20:00:00,
2013-04-24 16:05:00,43.6,32.2,29.95,WNW,297,4.0,4.0,64,0.00,,---,0.12,VWS V14.01,2013-04-24 20:05:00,
2013-04-24 16:10:00,43.6,32.2,29.95,West,259,2.0,5.0,64,0.00,,---,0.12,VWS V14.01,2013-04-24 20:10:00,
2013-04-24 16:15:00,43.8,32.0,29.95,WNW,293,4.0,6.0,63,0.00,,---,0.12,VWS V14.01,2013-04-24 20:15:00,
2013-04-24 16:20:00,43.5,32.2,29.96,WNW,286,2.0,6.0,64,0.00,,---,0.12,VWS V14.01,2013-04-24 20:20:00,
2013-04-24 16:25:00,43.7,31.5,29.96,SW,235,2.0,8.0,62,0.00,,---,0.12,VWS V14.01,2013-04-24 20:25:00,
2013-04-24 16:30:00,43.5,30.5,29.96,WNW,293,4.0,10.0,60,0.00,,---,0.12,VWS V14.01,2013-04-24 20:30:00,
2013-04-24 16:35:00,43.8,31.6,29.95,West,274,0.0,5.0,62,0.00,,---,0.12,VWS V14.01,2013-04-24 20:35:00,
2013-04-24 16:40:00,43.7,29.9,29.95,West,281,5.0,6.0,58,0.00,,---,0.12,VWS V14.01,2013-04-24 20:40:00,
2013-04-24 16:45:00,43.3,29.5,29.95,North,354,4.0,8.0,58,0.00,,---,0.12,VWS V14.01,2013-04-24 20:45:00,
2013-04-24 16:50:00,43.6,31.0,29.96,West,266,5.0,5.0,61,0.00,,---,0.12,VWS V14.01,2013-04-24 20:50:00,
2013-04-24 16:55:00,44.0,29.8,29.96,West,274,3.0,4.0,57,0.00,,---,0.12,VWS V14.01,2013-04-24 20:55:00,
2013-04-24 17:00:00,43.9,28.8,29.96,NW,315,0.0,2.0,55,0.00,,---,0.12,VWS V14.01,2013-04-24 21:00:00,
2013-04-24 17:05:00,44.2,29.1,29.97,West,260,4.0,5.0,55,0.00,,---,0.12,VWS V14.01,2013-04-24 21:05:00,
2013-04-24 17:10:00,44.2,29.1,29.97,West,259,0.0,1.0,55,0.00,,---,0.12,VWS V14.01,2013-04-24 21:10:00,
2013-04-24 17:15:00,44.4,27.4,29.97,WSW,252,5.0,5.0,51,0.00,,---,0.12,VWS V14.01,2013-04-24 21:15:00,
2013-04-24 17:19:00,44.6,29.0,29.98,West,274,0.0,3.0,54,0.00,,---,0.12,VWS V14.01,2013-04-24 21:19:00,
2013-04-24 17:24:00,44.6,28.1,29.98,NW,314,9.0,10.0,52,0.00,,---,0.12,VWS V14.01,2013-04-24 21:24:00,
2013-04-24 17:29:00,44.5,27.5,29.98,West,265,6.0,7.0,51,0.00,,---,0.12,VWS V14.01,2013-04-24 21:29:00,
2013-04-24 17:34:00,44.5,28.0,29.98,WNW,298,4.0,4.0,52,0.00,,---,0.12,VWS V14.01,2013-04-24 21:34:00,
2013-04-24 17:39:00,44.7,26.2,29.98,WNW,286,1.0,6.0,48,0.00,,---,0.12,VWS V14.01,2013-04-24 21:39:00,
2013-04-24 17:44:00,44.4,26.0,29.98,WNW,285,2.0,4.0,48,0.00,,---,0.12,VWS V14.01,2013-04-24 21:44:00,
2013-04-24 17:49:00,44.2,25.3,29.98,WNW,302,2.0,5.0,47,0.00,,---,0.12,VWS V14.01,2013-04-24 21:49:00,
2013-04-24 17:54:00,44.5,26.5,29.98,West,276,5.0,7.0,49,0.00,,---,0.12,VWS V14.01,2013-04-24 21:54:00,
2013-04-24 17:59:00,44.5,25.5,29.98,West,262,3.0,5.0,47,0.00,,---,0.12,VWS V14.01,2013-04-24 21:59:00,
2013-04-24 18:04:00,44.4,26.5,29.98,WSW,249,4.0,4.0,49,0.00,,---,0.12,VWS V14.01,2013-04-24 22:04:00,
2013-04-24 18:09:00,44.4,25.5,29.98,West,276,3.0,3.0,47,0.00,,---,0.12,VWS V14.01,2013-04-24 22:09:00,
2013-04-24 18:14:00,44.5,26.0,29.98,West,277,1.0,1.0,48,0.00,,---,0.12,VWS V14.01,2013-04-24 22:14:00,
2013-04-24 18:19:00,44.7,26.7,29.98,SW,226,3.0,3.0,49,0.00,,---,0.12,VWS V14.01,2013-04-24 22:19:00,
2013-04-24 18:24:00,44.9,26.4,29.98,WNW,297,3.0,4.0,48,0.00,,---,0.12,VWS V14.01,2013-04-24 22:24:00,
2013-04-24 18:29:00,44.9,26.4,29.98,WSW,252,0.0,1.0,48,0.00,,---,0.12,VWS V14.01,2013-04-24 22:29:00,
2013-04-24 18:34:00,44.9,26.9,29.99,West,262,0.0,3.0,49,0.00,,---,0.12,VWS V14.01,2013-04-24 22:34:00,
2013-04-24 18:39:00,45.3,27.8,29.99,WNW,282,1.0,2.0,50,0.00,,---,0.12,VWS V14.01,2013-04-24 22:39:00,
2013-04-24 18:44:00,45.2,27.2,29.99,WNW,290,0.0,3.0,49,0.00,,---,0.12,VWS V14.01,2013-04-24 22:44:00,
2013-04-24 18:49:00,45.1,28.1,29.99,West,274,2.0,2.0,51,0.00,,---,0.12,VWS V14.01,2013-04-24 22:49:00,
2013-04-24 18:54:00,45.0,27.5,29.99,WNW,292,2.0,7.0,50,0.00,,---,0.12,VWS V14.01,2013-04-24 22:54:00,
2013-04-24 18:59:00,45.0,27.5,29.99,WNW,297,3.0,4.0,50,0.00,,---,0.12,VWS V14.01,2013-04-24 22:59:00,
2013-04-24 19:04:00,45.2,28.6,29.99,West,281,0.0,0.0,52,0.00,,---,0.12,VWS V14.01,2013-04-24 23:04:00,
2013-04-24 19:09:00,45.1,28.1,29.99,WNW,288,0.0,3.0,51,0.00,,---,0.12,VWS V14.01,2013-04-24 23:09:00,
2013-04-24 19:14:00,45.0,27.5,29.99,WNW,293,0.0,5.0,50,0.00,,---,0.12,VWS V14.01,2013-04-24 23:14:00,
2013-04-24 19:19:00,45.0,28.5,29.99,WNW,284,1.0,4.0,52,0.00,,---,0.12,VWS V14.01,2013-04-24 23:19:00,
2013-04-24 19:24:00,45.1,28.5,29.99,WNW,284,0.0,2.0,52,0.00,,---,0.12,VWS V14.01,2013-04-24 23:24:00,
2013-04-24 19:29:00,45.1,29.9,29.99,WNW,284,1.0,3.0,55,0.00,,---,0.12,VWS V14.01,2013-04-24 23:29:00,
2013-04-24 19:34:00,44.8,28.3,29.99,WNW,284,0.0,3.0,52,0.00,,---,0.12,VWS V14.01,2013-04-24 23:34:00,
2013-04-24 19:39:00,44.7,29.1,29.99,WNW,284,0.0,1.0,54,0.00,,---,0.12,VWS V14.01,2013-04-24 23:39:00,
2013-04-24 19:44:00,44.6,29.5,29.99,NNW,343,0.0,4.0,55,0.00,,---,0.12,VWS V14.01,2013-04-24 23:44:00,
2013-04-24 19:49:00,44.3,29.2,29.99,NNW,343,0.0,1.0,55,0.00,,---,0.12,VWS V14.01,2013-04-24 23:49:00,
2013-04-24 19:54:00,44.1,29.4,29.99,NNW,340,0.0,2.0,56,0.00,,---,0.12,VWS V14.01,2013-04-24 23:54:00,
2013-04-24 19:59:00,44.0,29.8,29.99,NW,304,3.0,3.0,57,0.00,,---,0.12,VWS V14.01,2013-04-24 23:59:00,
2013-04-24 20:04:00,43.8,29.6,30.00,NW,304,0.0,1.0,57,0.00,,---,0.12,VWS V14.01,2013-04-25 00:04:00,
2013-04-24 20:09:00,43.6,29.8,30.00,NW,304,0.0,4.0,58,0.00,,---,0.12,VWS V14.01,2013-04-25 00:09:00,
2013-04-24 20:14:00,43.3,29.5,30.00,NW,304,0.0,1.0,58,0.00,,---,0.12,VWS V14.01,2013-04-25 00:14:00,
2013-04-24 20:19:00,43.2,29.9,30.01,NW,304,0.0,0.0,59,0.00,,---,0.12,VWS V14.01,2013-04-25 00:19:00,
2013-04-24 20:24:00,42.9,29.6,30.01,NW,304,0.0,0.0,59,0.00,,---,0.12,VWS V14.01,2013-04-25 00:24:00,
2013-04-24 20:29:00,42.5,30.4,30.01,NW,304,0.0,0.0,62,0.00,,---,0.12,VWS V14.01,2013-04-25 00:29:00,
2013-04-24 20:34:00,42.1,29.6,30.02,NW,304,0.0,0.0,61,0.00,,---,0.12,VWS V14.01,2013-04-25 00:34:00,
2013-04-24 20:39:00,41.8,29.8,30.02,NW,304,0.0,0.0,62,0.00,,---,0.12,VWS V14.01,2013-04-25 00:39:00,
2013-04-24 20:44:00,41.0,30.1,30.02,NW,304,0.0,0.0,65,0.00,,---,0.12,VWS V14.01,2013-04-25 00:44:00,
2013-04-24 20:49:00,40.2,30.9,30.03,NW,304,0.0,0.0,69,0.00,,---,0.12,VWS V14.01,2013-04-25 00:49:00,
2013-04-24 20:54:00,39.8,30.8,30.03,NW,304,0.0,0.0,70,0.00,,---,0.12,VWS V14.01,2013-04-25 00:54:00,
2013-04-24 20:59:00,39.5,31.2,30.03,NW,304,0.0,0.0,72,0.00,,---,0.12,VWS V14.01,2013-04-25 00:59:00,
2013-04-24 21:04:00,39.4,30.4,30.03,NW,304,0.0,0.0,70,0.00,,---,0.12,VWS V14.01,2013-04-25 01:04:00,
2013-04-24 21:09:00,39.1,30.5,30.03,NW,304,0.0,0.0,71,0.00,,---,0.12,VWS V14.01,2013-04-25 01:09:00,
2013-04-24 21:14:00,38.9,30.3,30.03,NW,304,0.0,0.0,71,0.00,,---,0.12,VWS V14.01,2013-04-25 01:14:00,
2013-04-24 21:19:00,38.8,30.9,30.03,NW,304,0.0,0.0,73,0.00,,---,0.12,VWS V14.01,2013-04-25 01:19:00,
2013-04-24 21:24:00,38.6,31.4,30.03,NW,304,0.0,0.0,75,0.00,,---,0.12,VWS V14.01,2013-04-25 01:24:00,
2013-04-24 21:29:00,38.2,31.6,30.03,NW,304,0.0,0.0,77,0.00,,---,0.12,VWS V14.01,2013-04-25 01:29:00,
2013-04-24 21:34:00,38.0,31.4,30.04,NW,304,0.0,0.0,77,0.00,,---,0.12,VWS V14.01,2013-04-25 01:34:00,
2013-04-24 21:39:00,37.7,31.8,30.04,NW,304,0.0,0.0,79,0.00,,---,0.12,VWS V14.01,2013-04-25 01:39:00,
2013-04-24 21:44:00,37.6,31.7,30.04,NW,304,0.0,0.0,79,0.00,,---,0.12,VWS V14.01,2013-04-25 01:44:00,
2013-04-24 21:49:00,37.5,32.5,30.05,NW,304,0.0,0.0,82,0.00,,---,0.12,VWS V14.01,2013-04-25 01:49:00,
2013-04-24 21:54:00,37.1,32.4,30.05,NW,304,0.0,0.0,83,0.00,,---,0.12,VWS V14.01,2013-04-25 01:54:00,
2013-04-24 21:59:00,37.0,32.3,30.05,NW,304,0.0,0.0,83,0.00,,---,0.12,VWS V14.01,2013-04-25 01:59:00,
2013-04-24 22:04:00,36.8,32.4,30.06,NW,304,0.0,0.0,84,0.00,,---,0.12,VWS V14.01,2013-04-25 02:04:00,
2013-04-24 22:09:00,36.5,32.4,30.06,NW,304,0.0,0.0,85,0.00,,---,0.12,VWS V14.01,2013-04-25 02:09:00,
2013-04-24 22:14:00,36.5,32.7,30.06,NW,304,0.0,0.0,86,0.00,,---,0.12,VWS V14.01,2013-04-25 02:14:00,
2013-04-24 22:19:00,36.7,32.6,30.06,NW,304,0.0,0.0,85,0.00,,---,0.12,VWS V14.01,2013-04-25 02:19:00,
2013-04-24 22:24:00,36.7,32.6,30.06,NW,304,0.0,0.0,85,0.00,,---,0.12,VWS V14.01,2013-04-25 02:24:00,
2013-04-24 22:29:00,36.9,32.5,30.06,NW,304,0.0,0.0,84,0.00,,---,0.12,VWS V14.01,2013-04-25 02:29:00,
2013-04-24 22:34:00,36.9,32.5,30.07,NW,304,0.0,0.0,84,0.00,,---,0.12,VWS V14.01,2013-04-25 02:34:00,
2013-04-24 22:39:00,36.9,32.8,30.07,NW,304,0.0,0.0,85,0.00,,---,0.12,VWS V14.01,2013-04-25 02:39:00,
2013-04-24 22:44:00,36.9,32.8,30.07,NW,304,0.0,0.0,85,0.00,,---,0.12,VWS V14.01,2013-04-25 02:44:00,
2013-04-24 22:49:00,36.8,33.0,30.07,NW,304,0.0,0.0,86,0.00,,---,0.12,VWS V14.01,2013-04-25 02:49:00,
2013-04-24 22:54:00,36.8,33.0,30.07,NW,304,0.0,0.0,86,0.00,,---,0.12,VWS V14.01,2013-04-25 02:54:00,
2013-04-24 22:59:00,36.8,32.7,30.07,NW,304,0.0,0.0,85,0.00,,---,0.12,VWS V14.01,2013-04-25 02:59:00,
2013-04-24 23:04:00,36.7,32.9,30.07,NW,304,0.0,0.0,86,0.00,,---,0.12,VWS V14.01,2013-04-25 03:04:00,
2013-04-24 23:09:00,36.8,32.7,30.07,NW,304,0.0,0.0,85,0.00,,---,0.12,VWS V14.01,2013-04-25 03:09:00,
2013-04-24 23:14:00,36.8,33.0,30.07,NW,304,0.0,0.0,86,0.00,,---,0.12,VWS V14.01,2013-04-25 03:14:00,
2013-04-24 23:19:00,37.1,33.0,30.07,NW,304,0.0,0.0,85,0.00,,---,0.12,VWS V14.01,2013-04-25 03:19:00,
2013-04-24 23:24:00,37.2,33.1,30.07,NW,304,0.0,0.0,85,0.00,,---,0.12,VWS V14.01,2013-04-25 03:24:00,
2013-04-24 23:29:00,37.2,32.8,30.07,NW,304,0.0,0.0,84,0.00,,---,0.12,VWS V14.01,2013-04-25 03:29:00,
2013-04-24 23:34:00,37.4,33.0,30.07,NW,304,0.0,0.0,84,0.00,,---,0.12,VWS V14.01,2013-04-25 03:34:00,
2013-04-24 23:39:00,37.6,32.9,30.07,NW,304,0.0,0.0,83,0.00,,---,0.12,VWS V14.01,2013-04-25 03:39:00,
2013-04-24 23:44:00,37.7,33.0,30.07,NW,304,0.0,0.0,83,0.00,,---,0.12,VWS V14.01,2013-04-25 03:44:00,
2013-04-24 23:49:00,37.9,32.9,30.07,NW,304,0.0,0.0,82,0.00,,---,0.12,VWS V14.01,2013-04-25 03:49:00,
2013-04-24 23:54:00,38.0,33.0,30.07,NW,304,0.0,0.0,82,0.00,,---,0.12,VWS V14.01,2013-04-25 03:54:00,
2013-04-24 23:59:00,38.0,33.3,30.07,NW,304,0.0,0.0,83,0.00,,---,0.12,VWS V14.01,2013-04-25 03:59:00,